User: anonymous   Login
Location: Caltech
(34.1382°N, 118.1253°W)
Time: 10:45:56
(UTC-07:00)
Language:

Meteor 1-11 Rocket - Orbit

View from above orbital plane
View from above orbital plane
View from above satellite
View from above satellite

Ground track
Ground track

The orbit data is extracted from the following two-line orbital elements,

1 05918U 72022B   15208.55115854 -.00000011  00000-0 -14538-4 0  9995
2 05918 081.2370 273.9525 0059777 107.1333 253.6393 14.05774991220969
Epoch (UTC): 27 July 2015 13:13:40
Eccentricity: 0.0059777
inclination: 81.2370°
perigee height: 830 km
apogee height: 917 km
right ascension of ascending node: 273.9525°
argument of perigee: 107.1333°
revolutions per day: 14.05774991
mean anomaly at epoch: 253.6393°
orbit number at epoch: 22096

The dashed part of the orbit path shows where the satellite is in the earth's shadow,  

DLR